Weather History for West Plains, MO

Change the Weather History Date:

Monday, August 4, 2014

  Actual Average Record
Temperature  
Mean Temperature 74 °F 78 °F  
Max Temperature 87 °F 91 °F 104 °F (1964)
Min Temperature 60 °F 66 °F 48 °F (1974)
Degree Days  
Heating Degree Days 0 0  
Month to date heating degree days 0 0  
Since 1 June heating degree days 4 5  
Since 1 July heating degree days 2 0  
Cooling Degree Days 9 13  
Month to date cooling degree days 31 52  
Year to date cooling degree days 680 845  
Since 1 June cooling degree days 530 723  
Growing Degree Days 23 (Base 50)    
Moisture  
Dew Point 61 °F    
Average Humidity 68    
Maximum Humidity 93    
Minimum Humidity 42    
Precipitation  
Precipitation 0.00 in 0.11 in 0.70 in (2009)
Month to date precipitation 0.03 0.46  
Year to date precipitation 18.87 27.30  
Sea Level Pressure  
Sea Level Pressure 30.09 in    
Wind  
Wind Speed 2 mph (South)    
Max Wind Speed 8 mph    
Max Gust Speed 11 mph    
Visibility 9 miles    
Events      
T = Trace of Precipitation, MM = Missing Value Source: NWS Daily Summary

Daily Weather History Graph

Daily Weather History Graph

Search for Another Location

Airport:

Trip Planner

Search our weather history database for the weather conditions in past years. The results will help you decide how hot, cold, wet, or windy it might be!

Date:

Astronomy

Aug. 04, 2014 Rise Set
Actual Time 6:15 AM CDT 8:11 PM CDT
Civil Twilight 5:47 AM CDT 8:39 PM CDT
Nautical Twilight 5:12 AM CDT 9:14 PM CDT
Astronomical Twilight 4:35 AM CDT 9:50 PM CDT
Moon 2:24 PM CDT (8/4) 12:21 AM CDT (8/4)
Length of Visible Light 14h 52m
Length of Day
13h 55m
First Quarter, 57% of the Moon is Illuminated
Aug 4
First Quarter
Aug 10
Full
Aug 17
Last Quarter
Aug 25
New
Sep 2
First Quarter

Hourly Weather History & Observations

Time (CDT) Temp. Heat Index Dew Point Humidity Pressure Visibility Wind Dir Wind Speed Gust Speed Precip Events Conditions
12:53 AM 64.9 °F - 62.1 °F 90% 30.11 in 9.0 mi Calm Calm - N/A   Clear
1:53 AM 63.0 °F - 60.1 °F 90% 30.10 in 8.0 mi Calm Calm - N/A   Clear
2:53 AM 63.0 °F - 59.0 °F 87% 30.09 in 8.0 mi Calm Calm - N/A   Clear
3:53 AM 63.0 °F - 60.1 °F 90% 30.09 in 8.0 mi Calm Calm - N/A   Clear
4:53 AM 60.1 °F - 57.9 °F 93% 30.10 in 7.0 mi Calm Calm - N/A   Clear
5:53 AM 61.0 °F - 57.9 °F 90% 30.11 in 7.0 mi Calm Calm - N/A   Clear
7:53 AM 66.9 °F - 63.0 °F 87% 30.13 in 7.0 mi Calm Calm - N/A   Clear
8:53 AM 73.9 °F - 64.0 °F 71% 30.14 in 10.0 mi Calm Calm - N/A   Clear
9:53 AM 77.0 °F - 60.1 °F 56% 30.14 in 10.0 mi Variable 3.5 mph - N/A   Clear
10:53 AM 81.0 °F 81.7 °F 61.0 °F 50% 30.13 in 10.0 mi WNW 3.5 mph - N/A   Clear
11:53 AM 82.0 °F 82.7 °F 61.0 °F 49% 30.14 in 10.0 mi Calm Calm - N/A   Clear
12:53 PM 84.0 °F 84.5 °F 62.1 °F 47% 30.10 in 10.0 mi Variable 3.5 mph - N/A   Scattered Clouds
1:53 PM 84.0 °F 84.5 °F 62.1 °F 47% 30.09 in 10.0 mi South 5.8 mph - N/A   Mostly Cloudy
2:53 PM 84.0 °F 84.5 °F 62.1 °F 47% 30.07 in 10.0 mi Variable 3.5 mph - N/A   Overcast
3:53 PM 86.0 °F 86.1 °F 61.0 °F 43% 30.05 in 10.0 mi ESE 5.8 mph - N/A   Mostly Cloudy
4:53 PM 86.0 °F 85.7 °F 60.1 °F 41% 30.04 in 10.0 mi Variable 4.6 mph - N/A   Partly Cloudy
5:53 PM 84.9 °F 85.0 °F 61.0 °F 44% 30.04 in 10.0 mi South 6.9 mph - N/A   Clear
6:53 PM 84.0 °F 84.5 °F 62.1 °F 47% 30.04 in 10.0 mi SSE 5.8 mph - N/A   Clear
7:53 PM 79.0 °F - 63.0 °F 58% 30.04 in 10.0 mi South 3.5 mph - N/A   Clear
8:53 PM 75.9 °F - 64.0 °F 67% 30.04 in 10.0 mi Calm Calm - N/A   Clear
9:53 PM 71.1 °F - 63.0 °F 75% 30.07 in 10.0 mi Calm Calm - N/A   Clear
10:53 PM 73.0 °F - 61.0 °F 66% 30.06 in 10.0 mi SSE 4.6 mph - N/A   Clear
11:53 PM 71.1 °F - 61.0 °F 70% 30.07 in 10.0 mi Calm Calm - N/A   Clear